Regional Weather Roundup
Issued by NWS Green Bay, WI

Home | Current Version | Previous Version | Graphics & Text | Print | Product List | Glossary Off
Versions: 1 2 3 4 5 6 7 8 9 10 11 12 13 14 15 16 17 18 19 20 21 22 23 24 25 26 27 28 29 30 31 32 33 34 35 36 37 38 39 40 41 42 43 44 45 46 47 48 49 50

000
ASUS43 KGRB 201959
RWRGRB

NORTH-CENTRAL AND NORTHEAST WISCONSIN REGIONAL WEATHER ROUNDUP
NATIONAL WEATHER SERVICE GREEN BAY WI
300 PM CDT WED AUG 20 2014

WIZ005-009-010>012-018-019-202100-
NORTH CENTRAL WISCONSIN

CITY           SKY/WX    TMP DP  RH WIND       PRES   REMARKS
IRONWOOD       CLOUDY    66  63  88 E5        29.88F
MANITOWISH WTR NOT AVBL
ARBOR VITAE    NOT AVBL
EAGLE RIVER    NOT AVBL
LAND O LAKES   NOT AVBL
RHINELANDER    CLOUDY    68  58  70 VRB3      29.92S
PHILLIPS       CLOUDY    69  59  71 CALM      29.91S
ANTIGO         NOT AVBL
TOMAHAWK       NOT AVBL
MERRILL        NOT AVBL
$$

WIZ013-073-202100-
NORTHEAST WISCONSIN

CITY           SKY/WX    TMP DP  RH WIND       PRES   REMARKS
IRON MOUNTAIN  CLOUDY    68  59  73 N3        29.89F
MARINETTE      CLOUDY    72  63  73 S3        29.87S
$$

WIZ017-030-035>037-045-202100-
CENTRAL WISCONSIN

CITY           SKY/WX    TMP DP  RH WIND       PRES   REMARKS
MEDFORD        NOT AVBL
WAUSAU         CLOUDY    69  61  75 SW5       29.90R
MOSINEE        CLOUDY    68  63  83 VRB5      29.92S
MARSHFIELD     MOSUNNY   75  61  61 CALM      29.90F
WISC RAPIDS    MOSUNNY   77  62  59 MISG      29.90S
STEVENS POINT  NOT AVBL
WAUPACA        NOT AVBL
SHAWANO        CLOUDY    72  62  71 CALM      29.90S
CLINTONVILLE   NOT AVBL
$$

WIZ038-039-048-051-202100-
FOX VALLEY

CITY           SKY/WX    TMP DP  RH WIND       PRES   REMARKS
NWS GREEN BAY  CLOUDY    70  62  76 W5        29.90S
APPLETON       PTSUNNY   72  61  68 N5        29.90F
OSHKOSH        MOSUNNY   74  66  76 E7        29.88F
FOND DU LAC    PTSUNNY   76  65  68 NE8       29.88F
$$

WIZ022-050-052-202100-
EAST CENTRAL WISCONSIN

CITY           SKY/WX    TMP DP  RH WIND       PRES   REMARKS
STURGEON BAY   CLOUDY    70  61  73 SW9       29.90F
MANITOWOC      NOT AVBL
SHEBOYGAN      CLOUDY    73  64  73 E8        29.89S
$$

LMZ563-521-522-541>543-202100-
LAKESHORE

STATION/POSITION TIME  TEMP    WIND        PRES    VSBY  WAVE
                       AIR SEA DIR/SP/G                  HT/PER
                 (UTC) (F)     (DEG/KT/KT) (MB)    (MI)  (FT/S)
SHEBOYGAN LKSHOR 1900   66 67  130/  8/  8 1012.5F
KEWAUNEE LKSHORE 1900   67     140/  3/  6 1011.8R
NORTHPORT PIER   1900   65     330/  7/  8 1012.2R
N MID LAKE BUOY  1900   62 62  290/  6/  6 1011.5R         1/ 3
S GREEN BAY BUOY 1900   68     VRB  4      1013.3R
SISTER BAY LKSHO 1900   70     360/  5/  6   N/A
CHAMBERS ISLAND  1900   69     230/  3/  6 1012.2R
MENOMINEE LKSHOR 1900   68     170/  8/ 10 1012.4F
$$



USA.gov is the U.S. government's official web portal to all federal, state and local government web resources and services.